Terminal Aerodrome Forecast
Issued by NWS Twin Cities, MN

Home | Current Version | Previous Version | Text Only | Print | Product List | Glossary On
Versions: 1 2 3 4 5 6 7 8 9 10 11 12
934
FTUS43 KMPX 031120
TAFEAU
TAF
KEAU 031120Z 0312/0412 25006KT P6SM SCT250
     FM031500 27013G20KT P6SM SCT120 BKN200
     FM032200 30015G23KT 6SM -SHRA VCTS BKN050CB BKN100
     FM040100 34008KT P6SM SCT060=

USA.gov is the U.S. government's official web portal to all federal, state and local government web resources and services.